| time (UTC) | temp C | wind direction | speed KPH | gust KPH | rain 1hr cm | rain 24hr cm | rain mn cm | humidity % | barometer mb |
| 20260504140808 | 15 | 172 | 1.6 | 6.4 | 0.00 | 0.00 | 0.00 | 43 | 1012.7 |
| 20260504110344 | 7 | 284 | 0.0 | 0.0 | 0.00 | 0.00 | 0.00 | 70 | 1013.4 |
| 20260504100255 | 5 | 300 | 0.0 | 0.0 | 0.00 | 0.00 | 0.00 | 73 | 1013.3 |
| 20260504090129 | 5 | 262 | 0.0 | 0.0 | 0.00 | 0.00 | 0.00 | 74 | 1013.2 |
| 20260504081131 | 5 | 262 | 0.0 | 0.0 | 0.00 | 0.00 | 0.00 | 72 | 1012.9 |
| 20260504080145 | 5 | 262 | 0.0 | 0.0 | 0.00 | 0.00 | 0.00 | 72 | 1012.9 |
| 20260504050639 | 5 | 262 | 0.0 | 0.0 | 0.00 | 0.00 | 0.00 | 75 | 1012.4 |
| 20260504045657 | 5 | 262 | 0.0 | 0.0 | 0.00 | 0.00 | 0.00 | 75 | 1012.5 |
| 20260504044632 | 6 | 262 | 0.0 | 0.0 | 0.00 | 0.00 | 0.00 | 74 | 1012.4 |
| 20260504043646 | 6 | 261 | 0.0 | 0.0 | 0.00 | 0.00 | 0.00 | 69 | 1012.5 |
| 20260504042656 | 6 | 261 | 0.0 | 0.0 | 0.00 | 0.00 | 0.00 | 69 | 1012.3 |
| 20260504041645 | 6 | 261 | 0.0 | 0.0 | 0.00 | 0.00 | 0.00 | 67 | 1012.3 |
| 20260504035521 | 6 | 261 | 0.0 | 0.0 | 0.00 | 0.00 | 0.00 | 64 | 1012.2 |
| 20260504034544 | 6 | 261 | 0.0 | 0.0 | 0.00 | 0.00 | 0.00 | 63 | 1012.2 |
| 20260504033608 | 6 | 261 | 0.0 | 0.0 | 0.00 | 0.00 | 0.00 | 63 | 1012.1 |
| 20260504032550 | 6 | 261 | 0.0 | 0.0 | 0.00 | 0.00 | 0.00 | 63 | 1012.2 |
| 20260504031546 | 6 | 261 | 0.0 | 0.0 | 0.00 | 0.00 | 0.00 | 62 | 1012.1 |
| 20260504030555 | 6 | 261 | 0.0 | 0.0 | 0.00 | 0.00 | 0.00 | 61 | 1012.1 |
| 20260504025542 | 7 | 261 | 0.0 | 0.0 | 0.00 | 0.00 | 0.00 | 61 | 1012.0 |
| 20260504024523 | 7 | 261 | 0.0 | 0.0 | 0.00 | 0.00 | 0.00 | 59 | 1012.1 |
| 20260504023510 | 7 | 261 | 0.0 | 0.0 | 0.00 | 0.00 | 0.00 | 58 | 1012.1 |
| 20260504022522 | 7 | 261 | 0.0 | 0.0 | 0.00 | 0.00 | 0.00 | 59 | 1012.1 |
| 20260504021528 | 7 | 261 | 0.0 | 0.0 | 0.00 | 0.00 | 0.00 | 58 | 1012.2 |
| 20260504020506 | 7 | 262 | 0.0 | 0.0 | 0.00 | 0.00 | 0.00 | 56 | 1012.1 |
| 20260504015437 | 8 | 262 | 0.0 | 0.0 | 0.00 | 0.00 | 0.00 | 56 | 1012.0 |
| 20260504012125 | 8 | 262 | 0.0 | 0.0 | 0.00 | 0.00 | 0.00 | 53 | 1011.9 |
| 20260504010005 | 9 | 262 | 0.0 | 0.0 | 0.00 | 0.00 | 0.00 | 50 | 1011.7 |
| 20260504005020 | 10 | 262 | 0.0 | 0.0 | 0.00 | 0.00 | 0.00 | 48 | 1011.4 |
| 20260504004031 | 10 | 262 | 0.0 | 0.0 | 0.00 | 0.00 | 0.00 | 46 | 1011.3 |
| 20260504003056 | 11 | 262 | 0.0 | 0.0 | 0.00 | 0.00 | 0.00 | 44 | 1011.2 |
| 20260504002116 | 11 | 262 | 0.0 | 0.0 | 0.00 | 0.00 | 0.00 | 41 | 1011.0 |
| 20260504001131 | 11 | 18 | 0.0 | 1.6 | 0.00 | 0.00 | 0.00 | 39 | 1011.0 |
| 20260504000056 | 12 | 260 | 0.0 | 1.6 | 0.00 | 0.00 | 0.00 | 38 | 1010.8 |
| 20260503235120 | 12 | 176 | 0.0 | 0.0 | 0.00 | 0.00 | 0.00 | 38 | 1010.7 |
| 20260503234141 | 12 | 239 | 0.0 | 4.8 | 0.00 | 0.00 | 0.00 | 36 | 1010.5 |
| 20260503233155 | 12 | 226 | 0.0 | 0.0 | 0.00 | 0.00 | 0.00 | 35 | 1010.4 |
| 20260503231049 | 12 | 295 | 0.0 | 12.9 | 0.00 | 0.00 | 0.00 | 35 | 1010.2 |
| 20260503225054 | 13 | 330 | 0.0 | 6.4 | 0.00 | 0.00 | 0.00 | 33 | 1009.9 |
| 20260503222945 | 13 | 313 | 3.2 | 16.1 | 0.00 | 0.00 | 0.00 | 31 | 1009.8 |
| 20260503221919 | 14 | 271 | 1.6 | 6.4 | 0.00 | 0.00 | 0.00 | 32 | 1009.8 |
| 20260503215728 | 14 | 244 | 1.6 | 9.7 | 0.00 | 0.00 | 0.00 | 33 | 1009.8 |
| 20260503214739 | 14 | 240 | 1.6 | 9.7 | 0.00 | 0.00 | 0.00 | 32 | 1009.9 |
| 20260503213738 | 14 | 39 | 1.6 | 8.0 | 0.00 | 0.00 | 0.00 | 36 | 1009.7 |
| 20260503211600 | 14 | 238 | 0.0 | 6.4 | 0.00 | 0.00 | 0.00 | 37 | 1009.6 |
| 20260503210529 | 13 | 347 | 1.6 | 6.4 | 0.00 | 0.00 | 0.00 | 37 | 1009.7 |
| 20260503205503 | 13 | 336 | 1.6 | 14.5 | 0.00 | 0.00 | 0.00 | 37 | 1009.7 |
| 20260503201006 | 13 | 321 | 3.2 | 11.3 | 0.00 | 0.00 | 0.00 | 39 | 1009.9 |
| 20260503194842 | 12 | 302 | 1.6 | 11.3 | 0.00 | 0.00 | 0.00 | 38 | 1009.9 |
| 20260503193833 | 12 | 49 | 3.2 | 11.3 | 0.00 | 0.00 | 0.00 | 41 | 1010.1 |
| 20260503192823 | 12 | 348 | 3.2 | 20.9 | 0.00 | 0.00 | 0.00 | 41 | 1010.2 |
| 20260503191839 | 12 | 321 | 4.8 | 24.1 | 0.00 | 0.00 | 0.00 | 40 | 1010.2 |
| 20260503190852 | 12 | 341 | 3.2 | 24.1 | 0.00 | 0.00 | 0.00 | 41 | 1010.3 |
| 20260503185902 | 12 | 5 | 3.2 | 24.1 | 0.00 | 0.00 | 0.00 | 42 | 1010.3 |
| 20260503184841 | 11 | 334 | 3.2 | 9.7 | 0.00 | 0.00 | 0.00 | 43 | 1010.3 |
| 20260503183808 | 11 | 301 | 1.6 | 16.1 | 0.00 | 0.00 | 0.00 | 43 | 1010.5 |
| 20260503182824 | 11 | 213 | 3.2 | 16.1 | 0.00 | 0.00 | 0.00 | 41 | 1010.6 |
| 20260503181813 | 12 | 296 | 3.2 | 27.4 | 0.00 | 0.00 | 0.00 | 41 | 1010.6 |
| 20260503180835 | 11 | 348 | 4.8 | 27.4 | 0.00 | 0.00 | 0.00 | 42 | 1010.4 |
| 20260503173513 | 11 | 253 | 3.2 | 12.9 | 0.00 | 0.00 | 0.00 | 41 | 1010.5 |
| 20260503172452 | 11 | 8 | 4.8 | 12.9 | 0.00 | 0.00 | 0.00 | 40 | 1010.6 |
| 20260503171511 | 11 | 331 | 4.8 | 19.3 | 0.00 | 0.00 | 0.00 | 41 | 1010.4 |
| 20260503150212 | 8 | 319 | 3.2 | 22.5 | 0.00 | 0.00 | 0.00 | 55 | 1011.0 |